DELTA 1 DEB, 2775

Orbit data source: Space-Track

DELTA 1 DEB, 2775 is space debris in SSO originally from a launch on Sun, 02 Oct 1966 UTC launched from the Air Force Western Test Range (AFWTR). Debris objects in space refer to the collection of defunct objects orbiting the Earth. Examples of debris include non-operational satellites, rocket bodies, and fragments generated from explosions, collisions, or faulty payload assembly.

Loading next visibility...
Identifier
2775, 1966-087D
Orbit
SSO
Country
Flag of USUS
Related business
Manufacturer
Unknown
Mission
Spacecraft
Bus & Motor
Unknown
Mass
1 kg wet, 1 kg dry
Launch date (UTC)
1966-10-02 (60 years ago)
Launch vehicle
Unknown
Launch site
Air Force Western Test Range (AFWTR)
Object type
Payload
Rocket body
Debris
Shape & HBR
Unknown
Radar Cross Section
Medium (>0.1 m² and <1 m²)

Expand to show TLE details & history
Last TLE update: 11 hours ago

TLE from 11 hours ago
0 DELTA 1 DEB
1  2775U 66087D   26177.93794909 -.00000023  00000-0  87370-4 0  9996
2  2775 100.9214 181.6839 0125510 103.8757 324.7723 12.71699129771573
Epoch: 2026-06-26T22:30Z
TLE epoch observation values (Epoch: 2026-06-26T22:30:38.801Z)
Latitude
65.47303°
Longitude
-95.91956°
Altitude
1,307.106 km
Speed
7.246 km/s
True Right ascension
10h 27m 12s
True Declination
65° 21' 08"
Sunlit
Object was in daylight at epoch
Visualization orbit readout
Latitude
Unknown
Longitude
Unknown
Altitude
Unknown
Speed
Unknown
Apparent Right ascension
Unknown
Apparent Declination
Unknown
Sunlit
N/A
Visualization observer readout
Local Sidereal Time
20:46:54
Azimuth
Unknown
Elevation
Unknown
Doppler factor
Unknown
Orbital elements
Apogee altitude
1,469.775 km
Perigee altitude
1,275.218 km
Semi-major axis
7,750.634 km
Eccentricity
0.01255
Inclination
100.9214°
RAAN
181.6839°
Arg. of periapsis
103.8757°
True anomaly
323.93195°
Mean anomaly
324.7723°
Eccentric anomaly
324.35321°
Mean motion
3.18081 °/min
Orbital period
113.18 mins
BSTAR
0.00008737
Loading maneuver chart data...
Computing Atmospheric mass density...
Loading historical data...
Loading historical data...
Loading historical data...
Loading historical data...
Loading historical data...
Loading historical data...
Loading historical data...
Other satellites on launch #87 in the year 1966 (1966-10-02 UTC)

Documentation

Showing up to 5 results
|